sat.trackr.live / text

‹ back to catalog

STARLINK-31277

NORAD 59651 · 2024-082W

PAYLOAD ACTIVE UNKNOWN

§ Identity

Operator
Country
US
Launch date
2024-05-03
Launch site
AFETR
Launch vehicle
Mass (kg)
RCS (m²)

Purposes: comms

External: N2YO · Heavens-Above · Gunter

§ Orbital elements

Epoch: 2026-05-25T01:55:30.799776Z

Period
94.27 min
Inclination
43.0020°
Eccentricity
0.0000812
Mean motion
15.27574246 rev/d
Perigee alt
482.5 km
Apogee alt
483.6 km
Semi-major
6,861.2 km
B*
3.2546e-5
RAAN
68.5015°
Arg perigee
253.2454°
Mean anomaly
106.8309°
Rev number
11,669

§ Raw data

STARLINK-312771 59651U 24082W   26145.08021759  .00000634  00000+0  32546-4 0  99982 59651  43.0020  68.5015 0000812 253.2454 106.8309 15.27574246116691

JSON: /api/v1/satellites/59651 · /tle

For live sub-satellite position, see the globe view (requires WebGL).

§ Visibility from observer

Set your observer location to see the next 7 days of passes ≥ 10°. The values pass through the URL so the page stays shareable.

No JS? Fill the form by hand. The geolocation button needs JavaScript.